Location: Iesi
(43.5167°N, 13.2333°E)
Time: 17:07:11
(UTC+00:00)

Cosmos 1727 Rocket - Pass Details

Date: 08 August 2020
Orbit: 961 x 996 km, 82.9° (Epoch: 22 September)

Event Time Altitude Azimuth Distance (km) Brightness Sun altitude
Rises 19:14:29 0° 351° (N) 3,723 7.7 -9.5°
Reaches altitude 10° 19:17:01 10° 352° (N) 2,772 7.0 -9.9°
Maximum altitude 19:23:25 87° 266° (W) 1,004 4.1 -10.9°
Drops below altitude 10° 19:29:45 10° 175° (S) 2,751 6.0 -11.8°
Enters shadow 19:32:11 - 175° (S) 3,667 6.6 -12.2°
